#timestamp,LO_Frequency,Hit 
1502920815.9,286047000.8,N
1502920835.7,286047000.9,N
1502920855.5,286046998.4,N
1502920875.4,286047000.7,N
1502920895.2,286047000.8,N
1502920915.0,286047002.4,N
1502920915.9,286047002.4,N
1502920935.8,286047000.3,N
1502920955.6,286047001.7,N
1502920975.4,286047004.2,N
1502920995.2,286047002.7,N
1502921015.1,286047001.5,N
1502921016.0,286047001.5,N
1502921035.8,286047003.9,N
1502921055.6,286047003.9,N
1502921075.5,286047004.4,N
1502921095.3,286047001.8,N
1502921115.1,286047003.5,N
1502921135.9,286047005.1,N
1502921155.7,286047005.2,N
1502921175.5,286047005.2,N
1502921195.4,286047005.3,N
1502921215.2,286047006.3,P
1502921235.0,286047007.2,P
1502921235.9,286047007.2,P
1502921255.8,286047005.3,N
1502921275.6,286047005.8,N
1502921295.4,286047003.2,N
1502921315.3,286047003.1,N
1502921335.1,286047005.4,N
1502921355.9,286047007.1,P
1502921375.7,286047002.0,N
1502921395.5,286047002.3,N
1502921415.3,286047001.6,N
1502921435.2,286047002.0,N
1502921455.9,286047001.4,N
1502921475.7,286047001.3,N
1502921495.6,286047000.2,N
1502921515.4,286047000.4,N
1502921535.2,286047002.7,N
1502921555.1,286047002.3,N
1502921556.0,286047002.3,N
1502921575.8,286047000.2,N
1502921595.6,286047001.4,N
1502921615.5,286047002.5,N
1502921635.3,286047001.3,N
1502921655.1,286047002.2,N
1502921675.8,286047002.0,N
1502921695.7,286047001.8,N
1502921715.5,286047002.1,N
1502921735.3,286047002.6,N
1502921755.2,286047001.4,N
1502921775.9,286047002.0,N
1502921795.7,286047001.5,N
1502921815.6,286047003.7,N
1502921835.4,286047003.1,N
1502921855.2,286047003.1,N
1502921875.1,286047003.4,N
1502921876.0,286047003.4,N
1502921895.8,286047005.6,P
1502921915.6,286047001.3,N
1502921935.5,286047001.3,N
1502921955.3,286047001.5,N
1502921975.1,286047001.8,N
1502921995.9,286047002.1,N
1502922015.7,286047004.4,P
1502922035.5,286047002.3,N
1502922055.4,286047002.4,N
1502922075.2,286046999.9,N
1502922095.0,286047000.4,N
1502922095.9,286047000.4,N
1502922115.8,286047002.4,N
1502922135.6,286047002.4,N
1502922155.4,286047002.5,N
1502922175.3,286047000.2,N
1502922195.1,286047002.1,N
1502922196.0,286047002.1,N
1502922215.8,286047002.0,N
1502922235.7,286047004.4,P
1502922255.5,286047002.5,N
1502922275.3,286047001.7,N
1502922295.2,286047001.7,N
1502922315.9,286047002.5,N
1502922335.7,286047001.4,N
1502922355.6,286047004.3,P
1502922375.4,286046999.8,N
1502922395.2,286047001.3,N
1502922415.0,286047002.4,N
1502922416.0,286047002.4,N
1502922435.8,286046999.7,N
1502922455.6,286046999.9,N
1502922475.4,286047000.5,N
1502922495.3,286047001.1,N
1502922515.1,286047000.9,N
1502922535.8,286046998.2,N
1502922555.7,286047000.1,N
1502922575.5,286047002.1,N
1502922595.3,286047003.0,N
1502922615.2,286047003.4,N
1502922635.9,286047009.2,P
1502922655.7,286047006.7,N
1502922675.6,286047009.2,N
1502922695.4,286047004.6,N
1502922715.2,286047007.4,N
1502922735.1,286047006.8,N
1502922736.0,286047006.8,N
1502922755.8,286047002.9,N
1502922775.6,286047003.2,N
1502922795.5,286047004.8,N
1502922815.3,286047001.5,N
1502922835.1,286047002.3,N
1502922855.8,286047002.4,N
1502922875.7,286047002.3,N
1502922895.5,286046999.9,N
1502922915.3,286046999.9,N
1502922935.2,286047000.8,N
1502922955.9,286047001.2,N
1502922975.7,286046998.1,N
1502922995.6,286047001.7,N
1502923015.4,286047002.6,N
1502923035.2,286047000.5,N
1502923055.1,286047002.1,N
1502923056.0,286047002.1,N
1502923075.8,286047005.3,N
1502923095.6,286047004.7,N
1502923115.5,286047005.8,N
1502923135.3,286047003.4,N
1502923155.1,286047003.8,N
1502923175.8,286047003.9,N
1502923195.7,286047003.9,N
1502923215.5,286047004.3,N
1502923235.3,286047002.0,N
1502923255.2,286047001.4,N
1502923275.9,286047003.7,N
1502923295.7,286047006.0,N
1502923315.6,286047004.6,N
1502923335.4,286047005.1,N
1502923355.2,286047005.6,N
1502923375.1,286047004.7,N
1502923376.0,286047004.7,N
1502923395.8,286047007.2,P
1502923415.6,286047003.1,N
1502923435.5,286047003.1,N
1502923455.3,286047005.9,P
1502923475.1,286047000.0,N
1502923495.9,286047000.3,N
1502923515.7,286046999.7,N
1502923535.5,286047002.5,N
1502923555.4,286047004.3,N
1502923575.2,286047002.5,N
1502923595.0,286047002.5,N
1502923595.9,286047002.5,N
1502923615.8,286047001.7,N
1502923635.6,286047003.9,N
1502923655.4,286047004.0,N
1502923675.3,286047001.4,N
1502923695.1,286047001.8,N
1502923696.0,286047001.8,N
1502923715.8,286047004.0,N
1502923735.7,286047002.7,N
1502923755.5,286047002.6,N
1502923775.3,286047001.6,N
1502923795.1,286047003.2,N
1502923815.9,286047004.7,P
1502923835.7,286047005.2,P
1502923855.6,286047005.9,P
1502923875.4,286047003.2,N
1502923895.2,286047002.5,N
1502923915.0,286047002.5,N
1502923916.0,286047002.5,N
1502923935.8,286047003.3,N
1502923955.6,286047003.0,N
1502923975.4,286047003.5,N
1502923995.3,286047002.9,N
1502924015.1,286047003.3,N
1502924035.8,286047004.2,P
1502924055.7,286047002.5,P
1502924075.5,286047002.0,N
1502924095.4,286047004.0,P
1502924115.2,286046998.5,P
1502924135.0,286046998.7,N
1502924135.9,286046998.7,N
1502924155.7,286047001.0,N
1502924175.6,286047000.5,N
1502924195.4,286047000.1,N
1502924215.2,286046999.8,N
1502924235.1,286047001.0,N
1502924236.0,286047001.0,N
1502924255.8,286047000.0,N
1502924275.6,286047000.2,N
1502924295.5,286047000.9,N
1502924315.3,286047000.6,N
1502924335.1,286046998.6,N
1502924355.9,286046998.4,N
1502924375.7,286046998.1,N
1502924395.5,286047000.9,N
